Regional Weather Roundup
Issued by NWS

Home | Current Version | Previous Version | Text Only | Print | Product List | Glossary Off
Versions: 1 2 3 4 5 6 7 8 9 10 11 12 13 14 15 16 17 18 19 20 21 22 23 24 25 26 27 28 29 30 31 32 33 34 35 36 37 38 39 40 41 42 43 44 45 46 47 48 49 50

000
ASUS44 KMEG 210410
RWRTN
TENNESSEE HOURLY STATE WEATHER ROUNDUP
NATIONAL WEATHER SERVICE MEMPHIS TN
1100 PM CDT SAT SEP 20 2014

TNZ002-004-019-021-049-052-054-088>092-210500-
WEST TENNESSEE

CITY           SKY/WX    TMP DP  RH WIND       PRES   REMARKS
MEMPHIS INTL   PTCLDY    75  67  76 S5        30.02R
NWS MEMPHIS      N/A     73 N/A N/A MISG        N/A
JACKSON        CLEAR     70  66  87 S5        30.02S
DYERSBURG      CLEAR     73  61  64 S3        30.01S
UNION CITY     CLEAR     66  66 100 CALM      29.99S
PARIS          CLEAR     66  64  94 CALM      30.02S
HUNTINGDON     CLEAR     67  66  96 CALM      30.02S
LEXINGTON      CLEAR     68  66  94 CALM      30.02S
SAVANNAH       CLEAR     66  66 100 CALM      30.03F
$$

TNZ008-025-027-028-033-062-065-066-210500-
NORTH MIDDLE TENNESSEE

CITY           SKY/WX    TMP DP  RH WIND       PRES   REMARKS
NASHVILLE      PTCLDY    71  66  84 S3        30.03S
DICKSON        CLEAR     70  64  83 SW5       30.03S
PORTLAND       CLEAR     66  64  94 S3        30.02R
CLARKSVILLE    CLEAR     71  66  84 S6        30.00F
LEBANON        CLEAR     68  64  86 CALM      30.01F
SMYRNA         CLEAR     69  65  87 CALM      30.03F
MURFREESBORO   CLEAR     73  63  71 S5        30.02
COOKEVILLE     PTCLDY    66  64  94 CALM      30.05F
LIVINGSTON     CLEAR     68  62  80 SW3       30.06F
GALLATIN       CLEAR     68  67  96 CALM      30.03S
CROSSVILLE     CLEAR     65  60  84 CALM      30.10S
$$

TNZ061-075-076-078-094-096-097-210500-
SOUTH MIDDLE TENNESSEE

CITY           SKY/WX    TMP DP  RH WIND       PRES   REMARKS
LEWISBURG      CLEAR     69  65  87 CALM      30.04S
FAYETTEVILLE   CLEAR     66  61  82 MISG      30.06F
WINCHESTER     CLEAR     63  61  94 CALM      30.07F
MCMINNVILLE    CLEAR     64  64 100 CALM      30.06F
COLUMBIA       CLEAR     70  70 100 CALM      30.03S
SHELBYVILLE    CLEAR     66  64  94 SE3       30.05F
$$

TNZ017-018-042-046-047-210500-
NORTHEAST TENNESSEE

CITY           SKY/WX    TMP DP  RH WIND       PRES   REMARKS
TRI CITIES     CLEAR     59  56  89 CALM      30.09S
ELIZABETHTON   CLEAR     59  55  88 CALM      30.10S
$$

TNZ012-013-036-069-073-074-210500-
CENTRAL EAST TENNESSEE

CITY           SKY/WX    TMP DP  RH WIND       PRES   REMARKS
KNOXVILLE      PTCLDY    67  61  81 S3        30.05F
OAK RIDGE      CLEAR     67  64  90 CALM      30.07F
GATLINBURG     CLEAR     63  59  88 CALM      30.06F
MORRISTOWN     CLEAR     64  61  88 CALM      30.07F
$$

TNZ083-085-099-210500-
SOUTHEAST TENNESSEE

CITY           SKY/WX    TMP DP  RH WIND       PRES   REMARKS
CHATTANOOGA    PTCLDY    68  63  84 CALM      30.07R
$$

SKY/WX REPORTED AS FAIR MEANS FEW OR NO CLOUDS BELOW
12 THOUSAND FEET.



USA.gov is the U.S. government's official web portal to all federal, state and local government web resources and services.